Flag for Switzerland Weather past 2 weeks in Versoix, Geneva, Switzerland

Now
29 °F

Chilly.


Feels Like: 29 °F
Forecast: 37 / 41 °F
Wind: 1 mph from West

Location: Geneve-Cointrin

Current Time: Jan 28, 2015 at 10:45:39 AM

Latest Report: Jan 28, 2015 at 9:00 AM


Visibility: N/A

Pressure: 30.27 "Hg

Humidity: 89%

Dew point: 26 °F

Location of VersoixLocation

Historic Weather in Versoix — Graph

°F

Versoix temperature yesterday

Maximum temperature yesterday: 40 °F (at 3:00 PM)
Minimum temperature yesterday: 32 °F (at 8:00 AM)
Average temperature yesterday: 35 °F

Past Weeks' High & Low Weather Summary

 TemperatureHumidityPressure
High54 °F (Jan 13, 3:00 PM)97% (Jan 20, 5:00 AM)30.42 "Hg (Jan 20, 5:00 AM)
Low25 °F (Jan 18, 6:00 AM)44% (Jan 13, 5:00 PM)29.72 "Hg (Jan 16, 3:00 PM)
Average37 °F78%30.08 "Hg
* Reported Jan 13 9:00 AM — Jan 28 9:00 AM, Versoix, Weather by CustomWeather, © 2014

Note: Actual official high and low records may vary slightly from our data, if they occured in-between our weather recording intervals... More about our weather records

Advertising

Versoix weather history for previous 24 hours

 ConditionsComfort  
Time TempWeatherWind HumidityBarometerVisibility
9:00 AM
Jan 28
29 °FChilly.1 mph89%30.27 "HgN/A
8:00 AM27 °FChilly.2 mph88%30.26 "HgN/A
7:00 AM30 °FOvercast.2 mph84%30.25 "Hg12 mi
6:00 AM27 °FChilly.2 mph90%30.26 "HgN/A
5:00 AM28 °FChilly.1 mph88%30.27 "HgN/A
4:00 AM27 °FPassing clouds.2 mph86%30.29 "Hg16 mi
3:00 AM28 °FChilly.1 mph87%30.31 "HgN/A
2:00 AM29 °FChilly.1 mph84%30.31 "HgN/A
1:00 AM30 °FOvercast.2 mph81%30.32 "Hg22 mi
12:00 AM31 °FChilly.2 mph79%30.31 "HgN/A
11:00 PM
Jan 27
32 °FChilly.1 mph76%30.32 "HgN/A
10:00 PM33 °FPassing clouds.2 mph75%30.32 "Hg22 mi
9:00 PM33 °FChilly.1 mph78%30.31 "HgN/A
8:00 PM36 °FChilly.2 mph71%30.29 "HgN/A
7:00 PM37 °FPassing clouds.6 mph66%30.29 "Hg28 mi
6:00 PM38 °FChilly.5 mph62%30.28 "HgN/A
5:00 PM39 °FChilly.6 mph60%30.26 "HgN/A
4:00 PM40 °FOvercast.8 mph60%30.25 "Hg28 mi
3:00 PM40 °FQuite cool.9 mph60%30.25 "HgN/A
2:00 PM40 °FChilly.7 mph71%30.25 "HgN/A
1:00 PM38 °FLow clouds.3 mph85%30.27 "Hg11 mi
12:00 PM36 °FChilly.1 mph90%30.29 "HgN/A
11:00 AM34 °FChilly.3 mph91%30.29 "HgN/A
10:00 AM33 °FFog.3 mph94%30.30 "Hg4 mi
Weather by CustomWeather, © 2014

See weather overviewHow to use our weather pages